STARLINK-32022 (60149 NORAD) Tracking and Keplerian Element Data

This shows tracking and keplerian element data for the satellite.

Feedback or suggestion? Click here.




ElementValue
Catalog60149
NameSTARLINK-32022
Epoch Orbit597
Epoch Day286.66667824
Epoch Year2024
RAAN187.3785
Inclination53.1584
Eccentricity6.43E-05
Argument of Perigee117.9104
Mean Anonmoly345.2322
Mean Motion15.39724923
Decay Rate-0.00134863
L11 60149U 24120Q 24286.66667824 -.00134863 00000+0 -34098-2 0 9998
L22 60149 53.1584 187.3785 0000643 117.9104 345.2322 15.39724923 5970



Live tracking and technical data element details for STARLINK-32022 (NORAD 60149). STARLINK-32022 can be tracked NOW for your location showing map with azimuth and elevation plus other details from your city location.







IsCatalogInMostPopularTable: catalog: 60149, numindb: 8
Update: records affected: 1



GetName: 60149 STARLINK-32022

Hit Count: updated at: Thu, 23 Jan 2025 13:45:43 GMT